Regional Weather Roundup
Issued by NWS Albany, NY

Home | Current Version | Previous Version | Graphics & Text | Print | Product List | Glossary Off
Versions: 1 2 3 4 5 6 7 8 9 10 11 12 13 14 15 16 17 18 19 20 21 22 23 24 25 26 27 28 29 30 31 32 33 34 35 36 37 38 39 40 41 42 43 44 45 46 47 48 49 50

000
ASUS41 KALY 260710
RWRALY

NEW YORK STATE HOURLY WEATHER ROUNDUP
NATIONAL WEATHER SERVICE ALBANY NY
200 AM EST FRI DEC 26 2014

NOTE: "FAIR" INDICATES FEW OR NO CLOUDS BELOW 12,000 FEET WITH NO
SIGNIFICANT WEATHER AND/OR NO OBSTRUCTIONS TO VISIBILITY.

NYZ032-033-038>043-046>054-057>066-NYZ062>081-260800-
EAST


CITY           SKY/WX    TMP DP  RH WIND       PRES   REMARKS
ALBANY         CLOUDY    42  29  59 W10G18    30.09F
GLENS FALLS    CLOUDY    42  28  57 W8        30.06R
POUGHKEEPSIE   PTCLDY    35  27  72 CALM      30.11R
NEWBURGH       PTCLDY    39  30  70 CALM      30.12R
MONTGOMERY     CLOUDY    38  27  64 SW6       30.10R WCI  33
WHITE PLAINS   CLEAR     40  27  59 W9        30.10R WCI  34
ISLIP          CLEAR     40  29  64 W6        30.10S
NEW YORK CITY  CLEAR     44  28  53 W10       30.14R
CENTRAL PARK   CLEAR     43  28  55 W7        30.16R
$$

NYZ005>009-017-018-044>046-055-056-260800-
CENTRAL


CITY           SKY/WX    TMP DP  RH WIND       PRES   REMARKS
FULTON         CLOUDY    40  28  62 W15G25    30.13R WCI  32
SYRACUSE       CLOUDY    40  29  64 W13G18    30.13R WCI  32
ROME           CLOUDY    39  30  70 W13       30.13R WCI  31
ELMIRA         CLOUDY    39  28  64 W8        30.13R WCI  33
BINGHAMTON     CLOUDY    36  26  67 W10       30.10R WCI  28
MONTICELLO     CLEAR     36  25  64 W8G16     30.09R WCI  29
$$

NYZ026>034-041>043-260800-
NORTH


CITY           SKY/WX    TMP DP  RH WIND       PRES   REMARKS
WATERTOWN      CLOUDY    41  31  67 W16G29    30.09R
FORT DRUM      NOT AVBL
MASSENA        PTCLDY    39  28  64 SW14G21   30.02R WCI  31
SARANAC LAKE   CLOUDY    34  27  75 W9G22     29.96R WCI  27
PLATTSBURGH    CLOUDY    41  26  55 SW8       29.99R
$$

NYZ001>004-010>016-019>021-260800-
WEST


CITY           SKY/WX    TMP DP  RH WIND       PRES   REMARKS
NIAGARA FALLS  CLOUDY    37  30  75 W14       30.13R WCI  28
BUFFALO        CLOUDY    38  30  73 SW17G29   30.13R WCI  28
DUNKIRK        CLOUDY    39  30  70 SW10G25   30.16R WCI  32
JAMESTOWN      CLOUDY    34  25  69 W10G17    30.13S WCI  26
WELLSVILLE     CLOUDY    33  25  72 W6        30.12R WCI  28
ROCHESTER      CLOUDY    40  29  64 W15       30.13R WCI  32
PENN YAN       CLOUDY    39  28  64 SW9       30.12S WCI  33
$$

             KEY
       WCI = WIND CHILL INDEX
       VSB = VISIBILITY
       HX  = HEAT INDEX
$$


USA.gov is the U.S. government's official web portal to all federal, state and local government web resources and services.